AVA43 MMMX-SKBO

Flight info

Callsign AVA43
Flight time 3h 44m
Altitude 37000
Route TEVOS2A TEVOS UT113 IZT J13 TAP UL423 ISEBA/N0477F390 UL423 ILTUR UQ122 UIB UP527 DAGUR/N0482F380 DCT TOLIM TOLIM4W
Aircraft A346/H-SDE2E3FGHIJ3J4J5M1RWXY/LB1D1

Departure

Time 2026-04-30 14:48
Airport Mexico City Benito Juárez International Airport (MMMX)

Arrival

Time 2026-04-30 18:33
Airport El Dorado International Airport (SKBO)
Time Latitude Longitude Altitude Speed Heading
2026-04-30 14:46 19.43235 -99.08436 7363 ft 0 kts 239°
2026-04-30 14:46 19.43228 -99.08449 7363 ft 7 kts 240°
2026-04-30 14:47 19.43175 -99.08546 7362 ft 18 kts 240°
2026-04-30 14:47 19.43089 -99.08607 7360 ft 14 kts 171°
2026-04-30 14:47 19.43052 -99.08536 7361 ft 11 kts 72°
2026-04-30 14:47 19.43133 -99.08384 7363 ft 55 kts 59°
2026-04-30 14:48 19.43457 -99.07810 7359 ft 125 kts 59°
2026-04-30 14:48 19.44016 -99.06815 7354 ft 183 kts 59°
2026-04-30 14:48 19.44703 -99.05585 7693 ft 201 kts 60°
2026-04-30 14:48 19.45435 -99.04302 8311 ft 206 kts 59°
2026-04-30 14:49 19.46174 -99.03024 9087 ft 205 kts 59°
2026-04-30 14:49 19.46879 -99.01750 9590 ft 206 kts 65°
2026-04-30 14:49 19.47049 -99.00236 9806 ft 219 kts 108°
2026-04-30 14:49 19.46138 -98.98849 10103 ft 245 kts 144°
2026-04-30 14:50 19.42800 -99.08978 7346 ft 0 kts 59°
2026-04-30 14:55 19.42978 -99.08660 7357 ft 87 kts 59°
2026-04-30 14:56 19.44058 -99.06750 7423 ft 202 kts 60°
2026-04-30 14:56 19.45574 -99.04057 8760 ft 217 kts 59°
2026-04-30 14:57 19.46354 -99.02682 9581 ft 224 kts 59°
2026-04-30 14:57 19.47912 -98.99920 10742 ft 257 kts 58°
2026-04-30 14:58 19.49303 -98.97431 11624 ft 267 kts 61°
2026-04-30 14:58 19.49813 -98.95567 12216 ft 274 kts 89°
2026-04-30 14:58 19.48114 -98.92026 13534 ft 288 kts 142°
2026-04-30 14:59 19.44677 -98.89703 14642 ft 297 kts 144°
2026-04-30 15:00 19.38998 -98.86974 15995 ft 324 kts 179°
2026-04-30 15:00 19.34282 -98.87425 16496 ft 353 kts 184°
2026-04-30 15:01 19.30570 -98.87776 16850 ft 372 kts 182°
2026-04-30 15:01 19.27945 -98.87971 17127 ft 383 kts 182°
2026-04-30 15:01 19.22396 -98.88308 17571 ft 411 kts 181°
2026-04-30 15:02 19.19496 -98.88466 17789 ft 425 kts 181°
2026-04-30 15:02 19.16496 -98.88625 18171 ft 433 kts 181°
2026-04-30 15:03 19.07332 -98.89104 19823 ft 442 kts 182°
2026-04-30 15:03 19.01145 -98.89423 20891 ft 448 kts 182°
2026-04-30 15:04 18.94869 -98.89748 21904 ft 455 kts 182°
2026-04-30 15:04 18.85240 -98.90250 23421 ft 466 kts 182°
2026-04-30 15:05 18.75364 -98.90765 24957 ft 476 kts 182°
2026-04-30 15:06 18.68737 -98.91110 25918 ft 483 kts 182°
2026-04-30 15:06 18.61979 -98.91459 26913 ft 488 kts 182°
2026-04-30 15:07 18.55135 -98.91813 27853 ft 495 kts 182°
2026-04-30 15:07 18.48175 -98.91902 28731 ft 500 kts 171°
2026-04-30 15:08 18.41747 -98.89200 29344 ft 497 kts 143°
2026-04-30 15:08 18.35190 -98.80949 31032 ft 491 kts 122°
2026-04-30 15:09 18.31338 -98.74959 31162 ft 495 kts 122°
2026-04-30 15:10 18.23541 -98.63015 31145 ft 495 kts 123°
2026-04-30 15:11 18.11845 -98.45110 31155 ft 494 kts 122°
2026-04-30 15:13 18.02294 -98.30128 31172 ft 495 kts 122°
2026-04-30 15:14 17.88851 -98.09146 31210 ft 494 kts 122°
2026-04-30 15:17 17.71577 -97.82268 31244 ft 495 kts 122°
2026-04-30 15:19 17.55394 -97.59029 31351 ft 494 kts 124°
2026-04-30 17:39 7.94761 -80.10609 30782 ft 526 kts 123°
2026-04-30 17:42 7.76183 -79.78743 30806 ft 527 kts 123°
2026-04-30 17:43 7.66898 -79.62845 30810 ft 527 kts 123°
2026-04-30 17:44 7.55726 -79.43734 30810 ft 527 kts 123°
2026-04-30 17:47 7.38965 -79.15113 30805 ft 528 kts 123°
2026-04-30 17:48 7.25873 -78.92784 30805 ft 529 kts 123°
2026-04-30 17:50 7.10898 -78.67281 30797 ft 528 kts 123°
2026-04-30 17:52 6.99656 -78.48178 30790 ft 529 kts 123°
2026-04-30 17:54 6.82564 -78.19581 30779 ft 526 kts 128°
2026-04-30 17:56 6.65231 -77.95749 30797 ft 526 kts 128°
2026-04-30 17:58 6.52270 -77.77937 30799 ft 526 kts 128°
2026-04-30 18:00 6.35616 -77.55078 30799 ft 527 kts 128°
2026-04-30 18:01 6.24772 -77.40202 30818 ft 527 kts 128°
2026-04-30 18:02 6.11762 -77.22379 30857 ft 528 kts 128°
2026-04-30 18:04 5.98723 -77.04526 30851 ft 529 kts 128°
2026-04-30 18:06 5.81282 -76.80665 30832 ft 529 kts 128°
2026-04-30 18:08 5.67492 -76.58880 30828 ft 532 kts 115°
2026-04-30 18:10 5.58194 -76.32562 30905 ft 533 kts 110°
2026-04-30 18:11 5.53062 -76.17845 31009 ft 532 kts 110°
2026-04-30 18:11 5.49401 -76.07351 31173 ft 532 kts 110°
2026-04-30 18:12 5.45736 -75.96857 31318 ft 532 kts 111°
2026-04-30 18:13 5.43282 -75.89835 31300 ft 532 kts 111°
2026-04-30 18:14 5.37231 -75.72531 31188 ft 510 kts 111°
2026-04-30 18:15 5.33710 -75.62474 30163 ft 513 kts 110°
2026-04-30 18:15 5.30175 -75.52403 28044 ft 506 kts 109°
2026-04-30 18:16 5.27887 -75.45851 26910 ft 494 kts 109°
2026-04-30 18:16 5.25663 -75.39496 26139 ft 476 kts 109°
2026-04-30 18:17 5.24568 -75.36366 25739 ft 467 kts 109°
2026-04-30 18:17 5.23502 -75.33322 25342 ft 460 kts 109°
2026-04-30 18:17 5.21397 -75.27318 24519 ft 446 kts 109°
2026-04-30 18:18 5.20378 -75.24412 24096 ft 441 kts 109°
2026-04-30 18:18 5.19367 -75.21529 23660 ft 436 kts 109°
2026-04-30 18:18 5.18370 -75.18685 23228 ft 431 kts 109°
2026-04-30 18:18 5.17386 -75.15879 22779 ft 427 kts 109°
2026-04-30 18:19 5.16399 -75.13066 22319 ft 423 kts 109°
2026-04-30 18:19 5.15436 -75.10323 21875 ft 419 kts 109°
2026-04-30 18:19 5.14479 -75.07596 21417 ft 415 kts 109°
2026-04-30 18:19 5.13508 -75.04830 20940 ft 412 kts 109°
2026-04-30 18:20 5.12563 -75.02138 20479 ft 408 kts 109°
2026-04-30 18:20 5.11629 -74.99477 20022 ft 404 kts 109°
2026-04-30 18:20 5.10700 -74.96835 19564 ft 401 kts 109°
2026-04-30 18:20 5.09778 -74.94211 19119 ft 398 kts 109°
2026-04-30 18:21 5.08864 -74.91610 18655 ft 395 kts 109°
2026-04-30 18:21 5.07949 -74.89005 18197 ft 392 kts 109°
2026-04-30 18:21 5.07053 -74.86453 17772 ft 388 kts 109°
2026-04-30 18:21 5.06162 -74.83916 17327 ft 385 kts 109°
2026-04-30 18:22 5.05282 -74.81413 16896 ft 382 kts 109°
2026-04-30 18:22 5.03530 -74.76427 15992 ft 375 kts 109°
2026-04-30 18:22 5.02667 -74.73973 15628 ft 372 kts 109°
2026-04-30 18:23 5.01811 -74.71540 15183 ft 371 kts 109°
2026-04-30 18:23 5.00957 -74.69108 14774 ft 369 kts 109°
2026-04-30 18:23 5.00107 -74.66692 14358 ft 366 kts 109°
2026-04-30 18:23 4.99260 -74.64285 13985 ft 363 kts 109°
2026-04-30 18:24 4.97632 -74.59653 13650 ft 342 kts 109°
2026-04-30 18:24 4.96856 -74.57448 13540 ft 330 kts 109°
2026-04-30 18:24 4.96106 -74.55312 13432 ft 319 kts 109°
2026-04-30 18:25 4.95383 -74.53254 13282 ft 310 kts 109°
2026-04-30 18:25 4.94004 -74.49332 13101 ft 287 kts 109°
2026-04-30 18:25 4.93354 -74.47482 13084 ft 275 kts 109°
2026-04-30 18:26 4.91853 -74.44141 12969 ft 258 kts 126°
2026-04-30 18:26 4.90738 -74.42729 12943 ft 255 kts 128°
2026-04-30 18:26 4.89599 -74.41338 12903 ft 259 kts 128°
2026-04-30 18:27 4.87339 -74.38474 12318 ft 263 kts 127°
2026-04-30 18:27 4.86229 -74.37019 12113 ft 267 kts 127°
2026-04-30 18:28 4.84007 -74.34069 12054 ft 251 kts 127°
2026-04-30 18:28 4.82989 -74.32717 11815 ft 233 kts 126°
2026-04-30 18:28 4.81140 -74.30260 11312 ft 210 kts 126°
2026-04-30 18:29 4.80280 -74.29119 11053 ft 199 kts 126°
2026-04-30 18:29 4.77999 -74.26096 10400 ft 170 kts 127°
2026-04-30 18:30 4.76573 -74.24211 10016 ft 169 kts 126°
2026-04-30 18:30 4.75149 -74.22329 9599 ft 168 kts 127°
2026-04-30 18:31 4.74445 -74.21401 9387 ft 168 kts 126°
2026-04-30 18:31 4.73036 -74.19522 8935 ft 167 kts 127°
2026-04-30 18:32 4.71628 -74.17676 8547 ft 167 kts 126°
2026-04-30 18:32 4.70921 -74.16745 8366 ft 164 kts 127°
2026-04-30 18:32 4.70008 -74.15540 8376 ft 62 kts 127°
2026-04-30 18:33 4.69809 -74.15279 8376 ft 37 kts 127°
2026-04-30 18:33 4.69698 -74.14861 8377 ft 11 kts 64°
2026-04-30 18:33 4.69763 -74.14801 8377 ft 12 kts 39°
2026-04-30 18:34 4.69832 -74.14748 8379 ft 7 kts 47°
2026-04-30 18:34 4.69770 -74.14610 8380 ft 17 kts 127°
2026-04-30 18:34 4.69702 -74.14521 8381 ft 16 kts 127°
2026-04-30 18:35 4.69658 -74.14465 8381 ft 4 kts 127°
2026-04-30 18:35 4.69651 -74.14455 8381 ft 1 kts 123°
2026-04-30 18:35 4.69650 -74.14448 8380 ft 0 kts 86°
2026-04-30 18:36 4.69661 -74.14433 8381 ft 2 kts 47°
2026-04-30 18:36 4.69675 -74.14420 8381 ft 2 kts 44°
2026-04-30 18:36 4.69678 -74.14418 8381 ft 0 kts 38°